Location: Rounton
(54.4000°N, 1.3500°W)
Time: 10:33:27
(UTC+00:00)

Transit 4A - Visible Passes

Search period start: 22 February 2024 00:00
Search period end: 03 March 2024 00:00
Orbit: 869 x 974 km, 66.8° (Epoch: 21 February)

Date Brightness Start Highest point End Pass type
(mag) Time Alt. Az. Time Alt. Az. Time Alt. Az.
22 Feb 10.1 01:51:48 19° ENE 01:51:48 19° ENE 01:53:38 10° NE visible
22 Feb 8.2 03:35:18 59° N 03:35:18 59° N 03:40:19 10° NE visible
22 Feb 9.0 05:18:47 21° WNW 05:21:39 30° NNW 05:26:52 10° NE visible
23 Feb 9.8 02:00:38 23° ENE 02:00:38 23° ENE 02:02:54 10° NE visible
23 Feb 8.3 03:44:07 53° NNW 03:44:07 53° NNW 03:49:24 10° NE visible
23 Feb 9.1 05:27:36 17° WNW 05:31:04 27° NNW 05:36:07 10° NE visible
24 Feb 9.6 02:09:26 27° NE 02:09:26 27° NE 02:12:05 10° NE visible
24 Feb 8.4 03:52:55 45° NNW 03:52:55 45° NNW 03:58:30 10° NE visible
24 Feb 9.2 05:36:24 13° WNW 05:40:32 26° N 05:45:26 10° NE visible
25 Feb 9.4 02:18:13 31° NE 02:18:13 31° NE 02:21:13 10° NE visible
25 Feb 8.6 04:01:42 38° NW 04:02:05 38° NNW 04:07:38 10° NE visible
25 Feb 9.3 05:45:11 10° WNW 05:50:00 25° N 05:54:49 10° NE visible
26 Feb 9.2 02:26:58 35° NE 02:26:58 35° NE 02:30:19 10° NE visible
26 Feb 8.8 04:10:27 31° NW 04:11:26 33° NNW 04:16:47 10° NE visible
26 Feb 9.4 05:54:36 10° NW 05:59:30 25° N 06:04:17 10° ENE visible
27 Feb 10.4 00:52:13 13° NE 00:52:13 13° NE 00:52:48 10° NE visible
27 Feb 9.0 02:35:42 38° NNE 02:35:42 38° NNE 02:39:24 10° NE visible
27 Feb 9.1 04:19:11 26° NW 04:20:51 29° NNW 04:25:59 10° NE visible
27 Feb 9.4 06:04:01 10° NW 06:08:58 26° N 06:13:50 10° ENE visible
28 Feb 10.2 01:00:56 16° NE 01:00:56 16° NE 01:02:02 10° NE visible
28 Feb 8.9 02:44:25 39° N 02:44:25 39° N 02:48:30 10° NE visible
28 Feb 9.3 04:27:54 21° NW 04:30:17 27° NNW 04:35:15 10° NE visible
28 Feb 9.3 06:13:21 10° NW 06:18:25 28° NNE 06:23:23 10° ENE visible
29 Feb 10.1 01:09:38 19° NE 01:09:38 19° NE 01:11:11 10° NE visible
29 Feb 8.9 02:53:07 38° N 02:53:07 38° N 02:57:36 10° NE visible
29 Feb 9.4 04:36:36 17° NW 04:39:45 25° N 04:44:37 10° NE visible
01 Mar 9.9 01:18:20 22° NE 01:18:20 22° NE 01:20:18 10° NE visible
01 Mar 8.9 03:01:48 35° NNW 03:01:48 35° NNW 03:06:43 10° NE visible
01 Mar 9.4 04:45:17 14° NW 04:49:14 25° N 04:54:01 10° NE visible
02 Mar 9.7 01:27:00 26° NE 01:27:00 26° NE 01:29:24 10° NE visible
02 Mar 9.0 03:10:28 31° NNW 03:10:37 31° NNW 03:15:54 10° NE visible
02 Mar 9.5 04:53:57 10° NW 04:58:42 25° N 05:03:31 10° ENE visible
